sat.trackr.live / text

‹ back to catalog

STARLINK-34988

NORAD 65453 · 2025-194V

PAYLOAD ACTIVE UNKNOWN

§ Identity

Operator
Country
US
Launch date
2025-09-03
Launch site
AFWTR
Launch vehicle
Mass (kg)
RCS (m²)

Purposes: comms

External: N2YO · Heavens-Above · Gunter

§ Orbital elements

Epoch: 2026-09-20T22:00:03.000096Z

Period
95.54 min
Inclination
97.2852°
Eccentricity
0.0001777
Mean motion
15.07149699 rev/d
Perigee alt
543.7 km
Apogee alt
546.1 km
Semi-major
6,923.1 km
B*
4.3386e-3
RAAN
113.8890°
Arg perigee
75.8295°
Mean anomaly
234.5267°
Rev number
579

§ Raw data

STARLINK-349881 65453U 25194V   26263.91670139  .00065722  00000+0  43386-2 0  99962 65453  97.2852 113.8890 0001777  75.8295 234.5267 15.07149699  5797

JSON: /api/v1/satellites/65453 · /tle

For live sub-satellite position, see the globe view (requires WebGL).

§ Visibility from observer

Set your observer location to see the next 7 days of passes ≥ 10°. The values pass through the URL so the page stays shareable.

No JS? Fill the form by hand. The geolocation button needs JavaScript.